| time (UTC) | temp F | wind direction | speed MPH | gust MPH | rain 1hr in | rain 24hr in | rain mn in | humidity % | barometer mb |
| 20260510094017 | 39 | 0.0 | 0.0 | 0.00 | 0.15 | 0.00 | 75 | 1010.3 | |
| 20260510093017 | 40 | 0.0 | 0.0 | 0.00 | 0.15 | 0.00 | 75 | 1010.2 | |
| 20260510092017 | 40 | 0.0 | 0.0 | 0.00 | 0.15 | 0.00 | 75 | 1010.1 | |
| 20260510091017 | 40 | 0.0 | 9.0 | 0.00 | 0.15 | 0.00 | 75 | 1009.9 | |
| 20260510090017 | 40 | 0.0 | 6.0 | 0.00 | 0.15 | 0.00 | 75 | 1009.8 | |
| 20260510085017 | 40 | 0.0 | 6.0 | 0.00 | 0.15 | 0.00 | 75 | 1009.8 | |
| 20260510084017 | 40 | 0.0 | 0.0 | 0.00 | 0.15 | 0.00 | 75 | 1009.7 | |
| 20260510083017 | 40 | 0.0 | 0.0 | 0.00 | 0.15 | 0.00 | 74 | 1009.5 | |
| 20260510082017 | 41 | 0.0 | 0.0 | 0.00 | 0.15 | 0.00 | 74 | 1009.5 | |
| 20260510081017 | 41 | 293 | 1.0 | 9.0 | 0.00 | 0.15 | 0.00 | 74 | 1009.5 |
| 20260510080017 | 41 | 0.0 | 4.0 | 0.00 | 0.15 | 0.00 | 74 | 1009.4 | |
| 20260510075017 | 41 | 0.0 | 3.0 | 0.00 | 0.15 | 0.00 | 73 | 1009.4 | |
| 20260510074017 | 42 | 315 | 1.0 | 5.0 | 0.00 | 0.15 | 0.00 | 72 | 1009.4 |
| 20260510073017 | 42 | 0.0 | 0.0 | 0.00 | 0.15 | 0.00 | 71 | 1009.3 | |
| 20260510072017 | 43 | 0.0 | 0.0 | 0.00 | 0.15 | 0.00 | 70 | 1009.3 | |
| 20260510071017 | 43 | 0.0 | 5.0 | 0.00 | 0.15 | 0.00 | 69 | 1009.2 | |
| 20260510070017 | 44 | 338 | 1.0 | 13.0 | 0.00 | 0.15 | 0.00 | 68 | 1009.1 |
| 20260510065017 | 44 | 0.0 | 11.0 | 0.00 | 0.15 | 0.00 | 67 | 1009.1 | |
| 20260510064018 | 45 | 338 | 1.0 | 13.0 | 0.00 | 0.15 | 0.00 | 66 | 1009.0 |
| 20260510063017 | 45 | 0.0 | 8.0 | 0.00 | 0.15 | 0.00 | 65 | 1008.9 | |
| 20260510062017 | 45 | 0.0 | 6.0 | 0.00 | 0.15 | 0.00 | 64 | 1008.8 | |
| 20260510061017 | 46 | 293 | 1.0 | 10.0 | 0.00 | 0.15 | 0.00 | 64 | 1008.5 |
| 20260510060017 | 46 | 0.0 | 7.0 | 0.00 | 0.15 | 0.00 | 64 | 1008.3 | |
| 20260510055017 | 46 | 0.0 | 0.0 | 0.00 | 0.15 | 0.00 | 64 | 1008.3 | |
| 20260510054017 | 47 | 0.0 | 0.0 | 0.00 | 0.15 | 0.00 | 64 | 1008.1 | |
| 20260510053017 | 47 | 0.0 | 0.0 | 0.00 | 0.15 | 0.00 | 63 | 1008.1 | |
| 20260510052017 | 47 | 0.0 | 0.0 | 0.00 | 0.15 | 0.00 | 63 | 1008.0 | |
| 20260510051017 | 48 | 0.0 | 0.0 | 0.00 | 0.15 | 0.00 | 64 | 1008.0 | |
| 20260510050017 | 48 | 0.0 | 0.0 | 0.00 | 0.15 | 0.00 | 63 | 1007.8 | |
| 20260510045017 | 48 | 0.0 | 0.0 | 0.00 | 0.15 | 0.00 | 63 | 1007.6 | |
| 20260510044017 | 48 | 0.0 | 0.0 | 0.00 | 0.15 | 0.00 | 64 | 1007.4 | |
| 20260510043017 | 48 | 0.0 | 0.0 | 0.00 | 0.15 | 0.00 | 65 | 1007.4 | |
| 20260510042017 | 48 | 0.0 | 0.0 | 0.00 | 0.15 | 0.00 | 66 | 1007.3 | |
| 20260510041017 | 48 | 0.0 | 0.0 | 0.00 | 0.15 | 0.00 | 66 | 1007.2 | |
| 20260510040017 | 48 | 0.0 | 0.0 | 0.00 | 0.15 | 0.15 | 67 | 1007.1 | |
| 20260510035017 | 48 | 0.0 | 0.0 | 0.00 | 0.15 | 0.15 | 67 | 1006.9 | |
| 20260510034017 | 49 | 0.0 | 0.0 | 0.00 | 0.15 | 0.15 | 67 | 1006.8 | |
| 20260510033017 | 49 | 0.0 | 0.0 | 0.00 | 0.15 | 0.15 | 68 | 1006.7 | |
| 20260510032017 | 49 | 0.0 | 0.0 | 0.00 | 0.15 | 0.15 | 67 | 1006.6 | |
| 20260510031017 | 50 | 0.0 | 0.0 | 0.00 | 0.15 | 0.15 | 66 | 1006.5 | |
| 20260510030017 | 50 | 0.0 | 0.0 | 0.00 | 0.15 | 0.15 | 65 | 1006.9 | |
| 20260510025017 | 50 | 0.0 | 9.0 | 0.00 | 0.15 | 0.15 | 66 | 1006.8 | |
| 20260510024017 | 51 | 0.0 | 4.0 | 0.00 | 0.15 | 0.15 | 69 | 1006.6 | |
| 20260510023017 | 51 | 0.0 | 7.0 | 0.00 | 0.15 | 0.15 | 69 | 1006.5 | |
| 20260510022017 | 51 | 0.0 | 4.0 | 0.00 | 0.15 | 0.15 | 70 | 1006.7 | |
| 20260510021017 | 52 | 0.0 | 1.0 | 0.00 | 0.15 | 0.15 | 73 | 1006.2 | |
| 20260510020017 | 52 | 0.0 | 8.0 | 0.00 | 0.15 | 0.15 | 77 | 1006.2 | |
| 20260510015017 | 53 | 0.0 | 3.0 | 0.00 | 0.15 | 0.15 | 80 | 1005.9 | |
| 20260510014017 | 53 | 0.0 | 0.0 | 0.00 | 0.15 | 0.15 | 83 | 1005.4 | |
| 20260510013017 | 53 | 0.0 | 0.0 | 0.00 | 0.15 | 0.15 | 84 | 1005.0 | |
| 20260510012017 | 54 | 0.0 | 0.0 | 0.00 | 0.15 | 0.15 | 85 | 1004.7 | |
| 20260510011017 | 54 | 0.0 | 0.0 | 0.00 | 0.15 | 0.15 | 84 | 1004.5 | |
| 20260510010017 | 54 | 0.0 | 0.0 | 0.00 | 0.15 | 0.15 | 84 | 1004.1 | |
| 20260510005017 | 54 | 0.0 | 0.0 | 0.00 | 0.15 | 0.15 | 85 | 1004.0 | |
| 20260510004017 | 54 | 0.0 | 0.0 | 0.01 | 0.15 | 0.15 | 85 | 1003.7 | |
| 20260510003017 | 55 | 0.0 | 0.0 | 0.01 | 0.15 | 0.15 | 85 | 1003.5 | |
| 20260510002017 | 55 | 0.0 | 0.0 | 0.01 | 0.15 | 0.15 | 86 | 1003.6 | |
| 20260510001017 | 55 | 0.0 | 0.0 | 0.01 | 0.15 | 0.15 | 87 | 1003.3 | |
| 20260510000017 | 55 | 0.0 | 0.0 | 0.01 | 0.15 | 0.15 | 88 | 1003.2 | |
| 20260509235017 | 55 | 0.0 | 0.0 | 0.01 | 0.15 | 0.15 | 88 | 1003.1 | |
| 20260509234017 | 55 | 0.0 | 0.0 | 0.00 | 0.14 | 0.14 | 88 | 1003.1 | |
| 20260509233017 | 55 | 0.0 | 0.0 | 0.00 | 0.14 | 0.14 | 87 | 1002.7 | |
| 20260509232017 | 56 | 0.0 | 0.0 | 0.00 | 0.14 | 0.14 | 87 | 1002.5 | |
| 20260509231017 | 55 | 0.0 | 0.0 | 0.00 | 0.14 | 0.14 | 86 | 1002.2 | |
| 20260509230017 | 55 | 293 | 1.0 | 9.0 | 0.00 | 0.14 | 0.14 | 86 | 1002.2 |
| 20260509225017 | 55 | 225 | 1.0 | 7.0 | 0.02 | 0.14 | 0.14 | 86 | 1002.2 |
| 20260509224017 | 55 | 0.0 | 7.0 | 0.09 | 0.14 | 0.14 | 86 | 1002.1 | |
| 20260509223017 | 55 | 225 | 1.0 | 8.0 | 0.13 | 0.14 | 0.14 | 87 | 1001.9 |
| 20260509222017 | 55 | 225 | 3.0 | 10.0 | 0.14 | 0.14 | 0.14 | 87 | 1001.9 |
| 20260509221017 | 55 | 225 | 3.0 | 20.0 | 0.14 | 0.14 | 0.14 | 88 | 1002.0 |
| 20260509220017 | 54 | 203 | 1.0 | 7.0 | 0.14 | 0.14 | 0.14 | 87 | 1002.0 |
| 20260509215017 | 55 | 203 | 5.0 | 14.0 | 0.13 | 0.13 | 0.13 | 84 | 1002.4 |
| 20260509214017 | 56 | 225 | 4.0 | 18.0 | 0.05 | 0.05 | 0.05 | 82 | 1002.3 |
| 20260509213017 | 58 | 203 | 4.0 | 12.0 | 0.02 | 0.02 | 0.02 | 79 | 1002.2 |
| 20260509212017 | 59 | 180 | 6.0 | 13.0 | 0.00 | 0.00 | 0.00 | 74 | 1002.1 |
| 20260509211017 | 58 | 180 | 3.0 | 12.0 | 0.00 | 0.00 | 0.00 | 73 | 1002.2 |
| 20260509210017 | 59 | 180 | 6.0 | 12.0 | 0.00 | 0.00 | 0.00 | 73 | 1002.1 |
| 20260509205017 | 59 | 180 | 7.0 | 14.0 | 0.00 | 0.00 | 0.00 | 72 | 1001.7 |
| 20260509204017 | 59 | 180 | 5.0 | 14.0 | 0.00 | 0.00 | 0.00 | 73 | 1001.5 |
| 20260509203017 | 59 | 180 | 7.0 | 16.0 | 0.00 | 0.00 | 0.00 | 72 | 1002.0 |
| 20260509202017 | 59 | 180 | 5.0 | 11.0 | 0.00 | 0.00 | 0.00 | 71 | 1002.1 |
| 20260509201017 | 60 | 180 | 5.0 | 12.0 | 0.00 | 0.00 | 0.00 | 70 | 1002.2 |
| 20260509200017 | 60 | 180 | 6.0 | 19.0 | 0.00 | 0.00 | 0.00 | 70 | 1002.2 |
| 20260509195017 | 60 | 180 | 7.0 | 20.0 | 0.00 | 0.00 | 0.00 | 70 | 1002.1 |
| 20260509194017 | 61 | 180 | 10.0 | 18.0 | 0.00 | 0.00 | 0.00 | 68 | 1002.2 |
| 20260509193017 | 61 | 180 | 8.0 | 19.0 | 0.00 | 0.00 | 0.00 | 69 | 1002.4 |
| 20260509192017 | 62 | 180 | 8.0 | 20.0 | 0.00 | 0.00 | 0.00 | 68 | 1002.5 |
| 20260509191017 | 62 | 180 | 10.0 | 20.0 | 0.00 | 0.00 | 0.00 | 68 | 1002.5 |
| 20260509190017 | 62 | 180 | 10.0 | 18.0 | 0.00 | 0.00 | 0.00 | 67 | 1002.8 |
| 20260509185017 | 63 | 180 | 6.0 | 17.0 | 0.00 | 0.00 | 0.00 | 65 | 1002.7 |
| 20260509184017 | 63 | 180 | 9.0 | 21.0 | 0.00 | 0.00 | 0.00 | 62 | 1003.0 |
| 20260509183017 | 62 | 180 | 6.0 | 14.0 | 0.00 | 0.00 | 0.00 | 65 | 1002.8 |
| 20260509182017 | 62 | 180 | 9.0 | 16.0 | 0.00 | 0.00 | 0.00 | 65 | 1002.9 |
| 20260509181017 | 61 | 180 | 8.0 | 16.0 | 0.00 | 0.00 | 0.00 | 67 | 1003.2 |
| 20260509180017 | 61 | 180 | 6.0 | 15.0 | 0.00 | 0.00 | 0.00 | 68 | 1003.3 |
| 20260509175017 | 61 | 180 | 6.0 | 14.0 | 0.00 | 0.00 | 0.00 | 69 | 1003.5 |
| 20260509174017 | 60 | 180 | 2.0 | 13.0 | 0.00 | 0.00 | 0.00 | 71 | 1003.6 |
| 20260509173017 | 59 | 180 | 4.0 | 11.0 | 0.00 | 0.00 | 0.00 | 72 | 1003.8 |
| 20260509172017 | 59 | 180 | 2.0 | 9.0 | 0.00 | 0.00 | 0.00 | 72 | 1004.0 |
| 20260509171017 | 59 | 158 | 2.0 | 8.0 | 0.00 | 0.00 | 0.00 | 74 | 1004.4 |
| 20260509170017 | 58 | 0.0 | 7.0 | 0.00 | 0.00 | 0.00 | 75 | 1004.8 | |
| 20260509165016 | 57 | 0.0 | 6.0 | 0.00 | 0.00 | 0.00 | 76 | 1004.8 | |
| 20260509164017 | 57 | 203 | 2.0 | 11.0 | 0.00 | 0.00 | 0.00 | 76 | 1005.0 |
| 20260509163017 | 57 | 0.0 | 5.0 | 0.00 | 0.00 | 0.00 | 76 | 1005.0 | |
| 20260509162017 | 57 | 225 | 1.0 | 9.0 | 0.00 | 0.00 | 0.00 | 77 | 1005.1 |
| 20260509161016 | 57 | 225 | 3.0 | 14.0 | 0.00 | 0.00 | 0.00 | 77 | 1005.2 |
| 20260509160017 | 56 | 225 | 4.0 | 13.0 | 0.00 | 0.00 | 0.00 | 78 | 1005.3 |
| 20260509155016 | 55 | 203 | 1.0 | 8.0 | 0.00 | 0.00 | 0.00 | 81 | 1005.4 |
| 20260509154017 | 54 | 203 | 2.0 | 13.0 | 0.00 | 0.00 | 0.00 | 82 | 1005.6 |
| 20260509153017 | 54 | 225 | 3.0 | 12.0 | 0.00 | 0.00 | 0.00 | 82 | 1005.6 |
| 20260509152016 | 54 | 180 | 5.0 | 13.0 | 0.00 | 0.00 | 0.00 | 82 | 1005.7 |
| 20260509151017 | 55 | 225 | 6.0 | 16.0 | 0.00 | 0.00 | 0.00 | 79 | 1005.8 |
| 20260509150016 | 55 | 180 | 4.0 | 14.0 | 0.00 | 0.00 | 0.00 | 77 | 1005.8 |
| 20260509145016 | 56 | 180 | 5.0 | 15.0 | 0.00 | 0.00 | 0.00 | 76 | 1005.6 |
| 20260509144016 | 55 | 158 | 4.0 | 16.0 | 0.00 | 0.00 | 0.00 | 76 | 1005.7 |
| 20260509143016 | 55 | 180 | 2.0 | 11.0 | 0.00 | 0.00 | 0.00 | 78 | 1005.8 |
| 20260509142016 | 54 | 180 | 3.0 | 11.0 | 0.00 | 0.00 | 0.00 | 77 | 1006.1 |
| 20260509141016 | 54 | 180 | 4.0 | 10.0 | 0.00 | 0.00 | 0.00 | 76 | 1006.3 |
| 20260509140017 | 54 | 225 | 2.0 | 10.0 | 0.00 | 0.00 | 0.00 | 76 | 1006.4 |
| 20260509135016 | 53 | 180 | 3.0 | 9.0 | 0.00 | 0.00 | 0.00 | 76 | 1006.3 |
| 20260509134016 | 53 | 203 | 3.0 | 12.0 | 0.00 | 0.00 | 0.00 | 77 | 1006.2 |
| 20260509133016 | 52 | 180 | 5.0 | 9.0 | 0.00 | 0.00 | 0.00 | 76 | 1006.3 |
| 20260509132017 | 52 | 180 | 2.0 | 7.0 | 0.00 | 0.00 | 0.00 | 74 | 1006.4 |
| 20260509131016 | 52 | 158 | 2.0 | 11.0 | 0.00 | 0.00 | 0.00 | 75 | 1006.5 |
| 20260509130016 | 51 | 180 | 2.0 | 7.0 | 0.00 | 0.00 | 0.00 | 75 | 1006.6 |
| 20260509125016 | 50 | 180 | 1.0 | 7.0 | 0.00 | 0.00 | 0.00 | 75 | 1006.5 |
| 20260509124017 | 50 | 203 | 2.0 | 8.0 | 0.00 | 0.00 | 0.00 | 74 | 1006.6 |
| 20260509123017 | 49 | 158 | 3.0 | 9.0 | 0.00 | 0.00 | 0.00 | 74 | 1006.6 |
| 20260509122016 | 49 | 180 | 2.0 | 10.0 | 0.00 | 0.00 | 0.00 | 72 | 1006.7 |
| 20260509121017 | 48 | 0.0 | 0.0 | 0.00 | 0.00 | 0.00 | 71 | 1006.6 | |
| 20260509120016 | 47 | 0.0 | 6.0 | 0.00 | 0.00 | 0.00 | 69 | 1006.4 | |
| 20260509115016 | 46 | 0.0 | 0.0 | 0.00 | 0.00 | 0.00 | 70 | 1006.4 | |
| 20260509114016 | 45 | 0.0 | 0.0 | 0.00 | 0.00 | 0.00 | 71 | 1006.6 | |
| 20260509113016 | 44 | 0.0 | 0.0 | 0.00 | 0.00 | 0.00 | 72 | 1006.7 | |
| 20260509112016 | 43 | 0.0 | 0.0 | 0.00 | 0.00 | 0.00 | 74 | 1006.8 | |
| 20260509111017 | 42 | 0.0 | 0.0 | 0.00 | 0.00 | 0.00 | 75 | 1006.7 | |
| 20260509110016 | 42 | 0.0 | 0.0 | 0.00 | 0.00 | 0.00 | 76 | 1006.7 | |
| 20260509105016 | 41 | 0.0 | 0.0 | 0.00 | 0.00 | 0.00 | 77 | 1006.7 | |
| 20260509104016 | 41 | 0.0 | 1.0 | 0.00 | 0.00 | 0.00 | 77 | 1006.5 | |
| 20260509103016 | 41 | 0.0 | 0.0 | 0.00 | 0.00 | 0.00 | 77 | 1006.6 | |
| 20260509102016 | 41 | 0.0 | 0.0 | 0.00 | 0.00 | 0.00 | 77 | 1006.7 | |
| 20260509101016 | 41 | 0.0 | 0.0 | 0.00 | 0.00 | 0.00 | 77 | 1006.9 | |
| 20260509100017 | 41 | 0.0 | 0.0 | 0.00 | 0.00 | 0.00 | 77 | 1006.9 | |
| 20260509095016 | 41 | 0.0 | 4.0 | 0.00 | 0.00 | 0.00 | 77 | 1006.9 |